TimeCST,TemperatureF,Dew PointF,Humidity,Sea Level PressureIn,VisibilityMPH,Wind Direction,Wind SpeedMPH,Gust SpeedMPH,PrecipitationIn,Events,Conditions,WindDirDegrees,DateUTC
12:12 AM,17.6,14.0,86,29.98,10.0,WNW,9.2,-,N/A,,Clear,290,2012-12-31 06:12:00
12:33 AM,15.8,12.2,86,29.98,10.0,WNW,10.4,-,N/A,,Clear,290,2012-12-31 06:33:00
12:52 AM,15.8,12.2,86,29.98,10.0,WNW,9.2,-,N/A,,Clear,300,2012-12-31 06:52:00
1:12 AM,15.8,12.2,86,29.99,10.0,WNW,8.1,17.3,N/A,,Clear,290,2012-12-31 07:12:00
1:33 AM,15.8,12.2,86,30.00,10.0,NW,10.4,16.1,N/A,,Clear,310,2012-12-31 07:33:00
1:52 AM,15.8,14.0,93,30.01,7.0,NW,10.4,17.3,N/A,,Mostly Cloudy,310,2012-12-31 07:52:00
2:12 AM,15.8,14.0,93,30.01,7.0,NW,11.5,19.6,N/A,,Scattered Clouds,310,2012-12-31 08:12:00
2:33 AM,15.8,12.2,86,30.03,10.0,NW,9.2,18.4,N/A,,Clear,320,2012-12-31 08:33:00
2:52 AM,15.8,14.0,93,30.04,7.0,NW,12.7,21.9,N/A,,Scattered Clouds,320,2012-12-31 08:52:00
3:12 AM,15.8,14.0,93,30.06,3.0,NW,11.5,19.6,N/A,,Overcast,310,2012-12-31 09:12:00
3:33 AM,15.8,15.8,100,30.05,5.0,NW,11.5,19.6,N/A,,Mostly Cloudy,310,2012-12-31 09:33:00
3:52 AM,17.6,15.8,93,30.05,5.0,NW,11.5,18.4,N/A,,Mostly Cloudy,310,2012-12-31 09:52:00
4:12 AM,17.6,15.8,93,30.06,4.0,NW,8.1,18.4,N/A,,Overcast,320,2012-12-31 10:12:00
4:33 AM,17.6,15.8,93,30.05,4.0,NW,11.5,20.7,N/A,,Overcast,320,2012-12-31 10:33:00
4:52 AM,17.6,12.2,79,30.06,10.0,NW,15.0,20.7,N/A,,Mostly Cloudy,320,2012-12-31 10:52:00
5:12 AM,15.8,10.4,79,30.08,10.0,NW,9.2,20.7,N/A,,Clear,320,2012-12-31 11:12:00
5:33 AM,14.0,8.6,79,30.08,10.0,NNW,12.7,20.7,N/A,,Clear,330,2012-12-31 11:33:00
5:52 AM,14.0,8.6,79,30.09,10.0,NNW,13.8,20.7,N/A,,Clear,330,2012-12-31 11:52:00
6:12 AM,12.2,8.6,85,30.11,10.0,NW,11.5,19.6,N/A,,Clear,320,2012-12-31 12:12:00
6:33 AM,12.2,8.6,85,30.11,10.0,NW,9.2,-,N/A,,Scattered Clouds,320,2012-12-31 12:33:00
6:52 AM,12.2,8.6,85,30.11,10.0,NNW,11.5,17.3,N/A,,Overcast,330,2012-12-31 12:52:00
7:12 AM,12.2,8.6,85,30.11,10.0,NNW,9.2,-,N/A,,Overcast,330,2012-12-31 13:12:00
7:33 AM,12.2,8.6,85,30.11,10.0,NNW,8.1,-,N/A,,Scattered Clouds,330,2012-12-31 13:33:00
7:52 AM,12.2,8.6,85,30.10,10.0,NNW,9.2,-,N/A,,Clear,330,2012-12-31 13:52:00
8:12 AM,12.2,8.6,85,30.11,10.0,NNW,6.9,-,N/A,,Clear,330,2012-12-31 14:12:00
8:33 AM,12.2,8.6,85,30.11,10.0,NNW,5.8,-,N/A,,Scattered Clouds,330,2012-12-31 14:33:00
8:52 AM,12.2,8.6,85,30.11,10.0,NNW,6.9,-,N/A,,Scattered Clouds,340,2012-12-31 14:52:00
9:12 AM,12.2,8.6,85,30.11,10.0,NW,5.8,-,N/A,,Clear,320,2012-12-31 15:12:00
9:33 AM,15.8,10.4,79,30.13,10.0,NW,6.9,-,N/A,,Clear,310,2012-12-31 15:33:00
9:52 AM,15.8,10.4,79,30.14,10.0,WNW,4.6,-,N/A,,Clear,300,2012-12-31 15:52:00
10:12 AM,15.8,10.4,79,30.14,10.0,NW,8.1,-,N/A,,Clear,320,2012-12-31 16:12:00
10:33 AM,17.6,10.4,73,30.14,10.0,NW,5.8,-,N/A,,Clear,320,2012-12-31 16:33:00
10:52 AM,17.6,8.6,68,30.14,10.0,NW,10.4,-,N/A,,Clear,320,2012-12-31 16:52:00
11:12 AM,15.8,6.8,68,30.14,10.0,NNW,10.4,-,N/A,,Clear,330,2012-12-31 17:12:00
11:33 AM,15.8,5.0,62,30.13,10.0,NW,10.4,-,N/A,,Clear,320,2012-12-31 17:33:00
11:52 AM,14.0,5.0,67,30.13,10.0,NW,10.4,17.3,N/A,,Clear,320,2012-12-31 17:52:00
12:12 PM,15.8,5.0,62,30.12,10.0,NNW,9.2,-,N/A,,Clear,330,2012-12-31 18:12:00
12:33 PM,15.8,5.0,62,30.12,10.0,NNW,8.1,-,N/A,,Clear,330,2012-12-31 18:33:00
12:52 PM,15.8,6.8,68,30.13,10.0,NW,4.6,-,N/A,,Clear,320,2012-12-31 18:52:00
1:12 PM,15.8,5.0,62,30.12,10.0,NNW,6.9,-,N/A,,Clear,330,2012-12-31 19:12:00
1:32 PM,15.8,6.8,68,30.11,10.0,NNW,6.9,-,N/A,,Clear,340,2012-12-31 19:32:00
1:52 PM,15.8,6.8,68,30.12,10.0,NNW,5.8,-,N/A,,Clear,330,2012-12-31 19:52:00
2:13 PM,15.8,5.0,62,30.12,10.0,WNW,8.1,-,N/A,,Clear,300,2012-12-31 20:13:00
2:32 PM,15.8,6.8,68,30.13,10.0,NW,8.1,-,N/A,,Clear,310,2012-12-31 20:32:00
2:52 PM,14.0,5.0,67,30.14,10.0,NW,5.8,-,N/A,,Clear,310,2012-12-31 20:52:00
3:13 PM,14.0,5.0,67,30.14,10.0,NW,6.9,-,N/A,,Clear,320,2012-12-31 21:13:00
3:32 PM,12.2,5.0,73,30.14,10.0,NNW,6.9,-,N/A,,Clear,330,2012-12-31 21:32:00
3:52 PM,12.2,3.2,67,30.14,10.0,NNW,6.9,-,N/A,,Clear,330,2012-12-31 21:52:00
4:13 PM,10.4,3.2,73,30.14,10.0,NNW,8.1,-,N/A,,Clear,330,2012-12-31 22:13:00
4:32 PM,8.6,3.2,79,30.14,10.0,NNW,8.1,-,N/A,,Clear,330,2012-12-31 22:32:00
4:52 PM,8.6,1.4,73,30.13,10.0,NNW,8.1,-,N/A,,Clear,340,2012-12-31 22:52:00
5:13 PM,6.8,1.4,79,30.14,10.0,NNW,8.1,-,N/A,,Clear,330,2012-12-31 23:13:00
5:32 PM,6.8,1.4,79,30.14,10.0,NNW,9.2,-,N/A,,Clear,340,2012-12-31 23:32:00
5:52 PM,6.8,1.4,79,30.15,10.0,NNW,5.8,-,N/A,,Clear,340,2012-12-31 23:52:00
5:59 PM,6.8,1.4,79,30.15,10.0,NNW,6.9,-,N/A,,Clear,340,2012-12-31 23:59:00
6:32 PM,5.0,-0.4,78,30.16,10.0,NNW,6.9,-,N/A,,Clear,330,2013-01-01 00:32:00
6:53 PM,5.0,-0.4,78,30.17,10.0,NNW,8.1,-,N/A,,Clear,340,2013-01-01 00:53:00
7:32 PM,5.0,-0.4,78,30.17,10.0,NNW,9.2,-,N/A,,Clear,340,2013-01-01 01:32:00
7:52 PM,3.2,-0.4,85,30.17,10.0,NNW,8.1,-,N/A,,Clear,340,2013-01-01 01:52:00
8:33 PM,3.2,-2.2,78,30.18,10.0,NNW,6.9,-,N/A,,Clear,340,2013-01-01 02:33:00
9:12 PM,1.4,-2.2,85,30.18,10.0,NNW,4.6,-,N/A,,Clear,340,2013-01-01 03:12:00
9:33 PM,1.4,-2.2,85,30.19,10.0,North,3.5,-,N/A,,Clear,350,2013-01-01 03:33:00
9:52 PM,1.4,-4.0,78,30.19,10.0,NNW,4.6,-,N/A,,Clear,340,2013-01-01 03:52:00
10:12 PM,-0.4,-4.0,85,30.20,10.0,NW,5.8,-,N/A,,Clear,320,2013-01-01 04:12:00
10:33 PM,-0.4,-4.0,85,30.21,10.0,Calm,Calm,-,N/A,,Clear,0,2013-01-01 04:33:00
10:52 PM,-0.4,-4.0,85,30.21,10.0,NNW,3.5,-,N/A,,Clear,330,2013-01-01 04:52:00
11:12 PM,-0.4,-4.0,85,30.21,10.0,Calm,Calm,-,N/A,,Clear,0,2013-01-01 05:12:00
11:33 PM,-0.4,-4.0,85,30.21,10.0,Calm,Calm,-,N/A,,Clear,0,2013-01-01 05:33:00